Location: Boissi�res
(45.2500°N, 2.3667°E)
Time: 09:38:42
(UTC+00:00)

Cosmos 192 - Pass Details

Date: 03 March 2021
Orbit: 700 x 714 km, 74.0° (Epoch: 18 April)

Event Time Altitude Azimuth Distance (km) Brightness Sun altitude
Rises 19:14:03 0° 184° (S) 3,071 7.6 -17.2°
Reaches altitude 10° 19:16:24 10° 178° (S) 2,159 6.7 -17.6°
Maximum altitude 19:21:04 48° 105° (ESE) 916 4.5 -18.4°
Drops below altitude 10° 19:25:47 10° 32° (NNE) 2,180 6.6 -19.2°
Sets 19:28:11 0° 27° (NNE) 3,105 7.5 -19.7°
